Tracking 19831 objects as of 23-Aug-2019
HD Live streaming from Space Station
objects crossing your sky now

TITAN 3C TRANSTAGE DEB

Track TITAN 3C TRANSTAGE DEB now!


NORAD ID: 28807
Int'l Code: 1965-108BZ
Perigee: 519.3 km
Apogee: 31,072.9 km
Inclination: 25.2 °
Period: 547.4 minutes
Semi major axis: 22167 km
RCS: 0.1068 m2 (medium)
Launch date: December 21, 1965
Source: United States (US)
Launch site: AIR FORCE EASTERN TEST RANGE (AFETR)

Note: This is SATELLITE DEBRIS
aabbcc
Your satellite tracking list
Your tracking list is empty




NASA's NSSDC Master Catalog

Two Line Element Set (TLE):
1 28807U 65108BZ  19215.13232094  .00000220  00000-0  14283-2 0  9991
2 28807  25.1801 214.9648 6891647 203.3143  97.7843  2.63050301153619
Source of the keplerian elements: AFSPC